Flag for Germany Weather past 2 weeks in Wipperfürth, North Rhine-Westphalia, Germany

Now
46 °F

Clear.


Feels Like: 46 °F
Forecast: 49 / 58 °F
Wind: 2 mph from East

Location: Koeln / Bonn

Current Time: Sep 24, 2014 at 2:27:31 AM

Latest Report: Sep 24, 2014 at 1:50 AM


Visibility: 10 mi

Pressure: 30.04 "Hg

Humidity: 87%

Dew point: 43 °F

Location of WipperfürthLocation

Historic Weather in Wipperfürth — Graph

°F

Wipperfürth temperature yesterday

Maximum temperature yesterday: 63 °F (at 3:50 PM)
Minimum temperature yesterday: 43 °F (at 4:20 AM)
Average temperature yesterday: 51 °F

Past Weeks' High & Low Weather Summary

 TemperatureHumidityPressure
High77 °F (Sep 17, 3:50 PM)100% (Sep 9, 4:20 AM)30.24 "Hg (Sep 9, 4:20 AM)
Low43 °F (Sep 23, 4:20 AM)44% (Sep 17, 4:20 PM)29.83 "Hg (Sep 18, 3:50 PM)
Average60 °F81%30.04 "Hg
* Reported Sep 9 1:20 AM — Sep 24 1:20 AM, Wipperfürth, Weather by CustomWeather, © 2014

Note: Actual official high and low records may vary slightly from our data, if they occured in-between our weather recording intervals... More about our weather records

Advertising

Wipperfürth weather history for previous 24 hours

 ConditionsComfort  
Time TempWeatherWind HumidityBarometerVisibility
1:20 AM
Sep 24
46 °FClear.3 mph93%30.07 "Hg10 mi
12:50 AM45 °FClear.5 mph93%30.07 "Hg10 mi
12:20 AM46 °FClear.2 mph87%30.07 "Hg10 mi
11:50 PM
Sep 23
46 °FClear.No wind87%30.07 "Hg10 mi
11:20 PM46 °FClear.2 mph87%30.07 "Hg10 mi
10:50 PM48 °FClear.2 mph87%30.07 "Hg10 mi
10:20 PM48 °FClear.3 mph87%30.07 "Hg10 mi
9:50 PM50 °FClear.1 mph82%30.07 "Hg10 mi
9:20 PM48 °FClear.1 mph82%30.09 "Hg10 mi
8:50 PM48 °FClear.2 mph76%30.09 "Hg10 mi
8:20 PM50 °FSunny.2 mph82%30.09 "Hg10 mi
7:50 PM54 °FSunny.3 mph72%30.09 "Hg10 mi
7:20 PM55 °FPartly sunny.5 mph72%30.09 "HgN/A
6:50 PM59 °FPartly sunny.3 mph59%30.09 "HgN/A
6:20 PM59 °FPartly sunny.5 mph55%30.09 "HgN/A
5:50 PM61 °FScattered clouds.2 mph48%30.09 "HgN/A
5:20 PM61 °FPassing clouds.3 mph48%30.09 "HgN/A
4:50 PM61 °FScattered clouds.2 mph48%30.09 "HgN/A
4:20 PM63 °FScattered clouds.5 mph45%30.12 "HgN/A
3:50 PM63 °FScattered clouds.3 mph45%30.12 "HgN/A
3:20 PM61 °FScattered clouds.5 mph45%30.12 "HgN/A
2:50 PM61 °FScattered clouds.3 mph52%30.15 "HgN/A
2:20 PM61 °FScattered clouds.2 mph52%30.15 "HgN/A
1:50 PM57 °FScattered clouds.3 mph63%30.15 "HgN/A
1:20 PM57 °FPassing clouds.2 mph67%30.18 "HgN/A
12:20 PM57 °FPassing clouds.3 mph67%30.18 "HgN/A
11:50 AM55 °FPassing clouds.2 mph72%30.18 "HgN/A
11:20 AM54 °FScattered clouds.3 mph77%30.21 "HgN/A
10:50 AM52 °FPartly sunny.3 mph82%30.21 "HgN/A
10:20 AM50 °FPartly sunny.5 mph88%30.21 "HgN/A
9:50 AM48 °FPartly sunny.3 mph94%30.21 "HgN/A
9:20 AM46 °FPartly sunny.2 mph93%30.18 "Hg6 mi
8:50 AM46 °FPartly sunny.3 mph93%30.18 "Hg5 mi
8:20 AM45 °FPartly sunny.3 mph100%30.18 "Hg5 mi
7:50 AM45 °FPassing clouds.5 mph93%30.18 "Hg4 mi
7:20 AM43 °FFog.3 mph100%30.18 "Hg4 mi
6:50 AM43 °FFog.3 mph93%30.18 "HgN/A
6:20 AM43 °FFog.5 mph100%30.18 "HgN/A
5:50 AM43 °FFog.5 mph100%30.18 "HgN/A
5:20 AM43 °FFog.3 mph93%30.15 "Hg6 mi
4:50 AM43 °FFog.1 mph100%30.15 "Hg6 mi
4:20 AM43 °FFog.3 mph100%30.15 "HgN/A
3:50 AM45 °FFog.2 mph93%30.15 "HgN/A
3:20 AM45 °FFog.3 mph93%30.18 "HgN/A
2:50 AM45 °FFog.2 mph93%30.18 "HgN/A
2:20 AM45 °FFog.1 mph93%30.18 "HgN/A
Weather by CustomWeather, © 2014

See weather overviewHow to use our weather pages